sat.trackr.live / text

‹ back to catalog

STARLINK-35497

NORAD 66241 · 2025-245H

PAYLOAD ACTIVE UNKNOWN

§ Identity

Operator
Country
US
Launch date
2025-10-29
Launch site
AFETR
Launch vehicle
Mass (kg)
RCS (m²)

Purposes: comms

External: N2YO · Heavens-Above · Gunter

§ Orbital elements

Epoch: 2026-05-25T03:08:58.164864Z

Period
94.11 min
Inclination
53.1603°
Eccentricity
0.0001202
Mean motion
15.30205504 rev/d
Perigee alt
474.4 km
Apogee alt
476.0 km
Semi-major
6,853.3 km
B*
7.2044e-4
RAAN
288.5751°
Arg perigee
90.5387°
Mean anomaly
269.5752°
Rev number
3,291

§ Raw data

STARLINK-354971 66241U 25245H   26145.13122876  .00021042  00000+0  72044-3 0  99932 66241  53.1603 288.5751 0001202  90.5387 269.5752 15.30205504 32918

JSON: /api/v1/satellites/66241 · /tle

For live sub-satellite position, see the globe view (requires WebGL).

§ Visibility from observer

Set your observer location to see the next 7 days of passes ≥ 10°. The values pass through the URL so the page stays shareable.

No JS? Fill the form by hand. The geolocation button needs JavaScript.